Miscellaneous Local Product
Issued by NWS Hastings, NE

Home | Current Version | Previous Version | Text Only | Print | Product List | Glossary Off
Versions: 1 2 3 4 5 6 7 8 9 10 11 12 13 14 15 16 17 18 19 20 21 22 23 24 25 26 27 28 29 30 31 32 33 34 35 36 37 38 39 40 41 42 43 44 45 46 47 48 49 50

000
AXUS43 KGID 250702
MISGRI

GID CWA HOURLY WEATHER ROUNDUP
NATIONAL WEATHER SERVICE HASTINGS NE
200 AM CDT MON JUL 25 2016

NOTE: "FAIR" INDICATES FEW OR NO CLOUDS BELOW 12,000 FEET WITH NO
SIGNIFICANT WEATHER AND/OR OBSTRUCTIONS TO VISIBILITY.

...SOUTH CENTRAL NEBRASKA...

CITY           SKY/WX    TMP DP  RH WIND       PRES   REMARKS
GRAND ISLAND   PTCLDY    66  63  90 NE6       30.10F
HASTINGS       PTCLDY    67  63  87 NE6       30.09F
KEARNEY        MOCLDY    66  61  82 NE7       30.10F
ORD            CLOUDY    63  60  90 CALM      30.11S
YORK           CLOUDY    66  64  94 CALM      30.09F
AURORA         CLOUDY    66  65  96 NE3       30.09F
LEXINGTON      MOCLDY    67  63  86 CALM      30.12F
HOLDREGE       MOCLDY    68  64  85 NE3       30.10F
HEBRON         CLOUDY    67  64  88 NE6       30.05F

...NEBRASKA PANHANDLE...

CITY           SKY/WX    TMP DP  RH WIND       PRES   REMARKS
CHADRON        CLEAR     71  56  58 S14       30.13S
ALLIANCE       CLEAR     57  55  93 S7        30.19S
SCOTTSBLUFF    CLEAR     62  55  77 E7        30.19F
SIDNEY         CLEAR     55  53  93 W7        30.23S

...WESTERN AND NORTH CENTRAL NEBRASKA...

CITY           SKY/WX    TMP DP  RH WIND       PRES   REMARKS
VALENTINE      CLEAR     66  55  67 CALM      30.14F
AINSWORTH      CLEAR     61  56  84 S7        30.15S
ONEILL         CLOUDY    65  60  85 CALM      30.13F
BROKEN BOW     CLOUDY    63  61  93 CALM      30.13F
IMPERIAL       CLOUDY    66  60  81 N5        30.15F
NORTH PLATTE   CLOUDY    64  61  90 E6        30.13F
MCCOOK         CLOUDY    72  59  63 E7        30.12R

...EASTERN NEBRASKA...

CITY           SKY/WX    TMP DP  RH WIND       PRES   REMARKS
NORFOLK        CLEAR     59  57  93 W5        30.10S
SO SIOUX CITY  CLEAR     68  63  84 NW6       30.07S
TEKAMAH        PTCLDY    65  62  90 N7        30.06F
COLUMBUS       PTCLDY    63  54  72 CALM      30.09F
ALBION         CLOUDY    61  58  91 CALM      30.11S
OMAHA EPPLEY   MOCLDY    70  65  84 N7        30.05F
OFFUTT AFB     PTCLDY    69  65  88 N3        30.05F
MILLARD        MOCLDY    73  65  77 CALM      30.06S
LINCOLN        CLOUDY    66  64  93 NE5       30.07F
NEBRASKA CITY  CLEAR     68  67  98 N6        30.05F
BEATRICE       PTCLDY    66  64  92 NE6       30.05F
FALLS CITY     CLEAR     69  66  90 N5        30.02F

...NORTHERN KANSAS...

CITY           SKY/WX    TMP DP  RH WIND       PRES   REMARKS
GOODLAND       CLOUDY    64  60  87 S10       30.14F
HILL CITY      CLOUDY    75  60  59 W12G29    30.12R
NORTON         SUNNY     70  54  56 E7        30.07
SMITH CENTER   CLEAR     70  61  73 E10       30.05F
BELOIT         CLEAR     70  64  83 NE9       30.01F
HAYS           CLOUDY    72  57  60 N8        30.04R
RUSSELL        MOCLDY    70  65  84 NE9       30.00S
CONCORDIA      CLOUDY    70  63  78 E5        30.02F
SALINA         MOCLDY    77  69  76 E6        29.98F
TOPEKA         CLOUDY    75  69  81 NW3       30.00R



USA.gov is the U.S. government's official web portal to all federal, state and local government web resources and services.